McConnell AFB, KS

6:14 PM CDT on April 25, 2018 (GMT -0500)
McConnell Air Force Base

Weather History for KIAB - August, 2013

Change the Weather History Date:

Tuesday, August 6, 2013

  Actual Average Record
Temperature  
Mean Temperature 80 °F -  
Max Temperature 91 °F 87 °F 104 °F (2006)
Min Temperature 69 °F 67 °F 60 °F (1997)
Cooling Degree Days 15    
Growing Degree Days 30 (Base 50)    
Moisture  
Dew Point 74 °F    
Average Humidity 87    
Maximum Humidity 100    
Minimum Humidity 59    
Precipitation  
Precipitation 0.04 in - - ()
Sea Level Pressure  
Sea Level Pressure 29.83 in    
Wind  
Wind Speed 6 mph (ESE)    
Max Wind Speed 22 mph    
Max Gust Speed -    
Visibility 10 miles    
Events Rain , Thunderstorm    
Averages and records for this station are not official NWS values.
T = Trace of Precipitation, MM = Missing Value Source: NWS Daily Summary

Daily Weather History Graph

Daily Weather History Graph

Search for Another Location

Airport or City:

Astronomy

Aug. 06, 2013 Rise Set
Actual Time 6:37 AM CDT 8:31 PM CDT
Civil Twilight 6:08 AM CDT 9:00 PM CDT
Nautical Twilight 5:34 AM CDT 9:34 PM CDT
Astronomical Twilight 4:56 AM CDT 10:12 PM CDT
Moon 6:28 AM CDT (8/6) 8:09 PM CDT (8/6)
Length of Visible Light 14h 51m
Length of Day
13h 54m
Waning Crescent, 0% of the Moon is Illuminated
Aug 6
Waning Crescent
Aug 6
New
Aug 14
First Quarter
Aug 20
Full
Aug 28
Last Quarter

Hourly Weather History & Observations

Time (CDT) Temp. Heat Index Dew Point Humidity Pressure Visibility Wind Dir Wind Speed Gust Speed Precip Events Conditions
12:03 AM 69.8 °F - 69.8 °F 100% 29.94 in 8.0 mi North 4.6 mph - N/A Rain Rain
12:06 AM 69.8 °F - 69.8 °F 100% 29.93 in 8.0 mi NNE 5.8 mph - N/A Rain , Thunderstorm Light Thunderstorms and Rain
12:21 AM 69.8 °F - 69.8 °F 100% 29.91 in 10.0 mi South 2.3 mph - N/A Rain Light Rain
12:26 AM 69.8 °F - 69.8 °F 100% 29.90 in 10.0 mi South 2.3 mph - N/A Rain Light Rain
12:28 AM 71.6 °F - 71.6 °F 100% 29.90 in 10.0 mi South 3.5 mph - N/A Rain Light Rain
12:33 AM 71.6 °F - 71.6 °F 100% 29.90 in 10.0 mi SSW 5.8 mph - N/A Rain Light Rain
12:38 AM 71.6 °F - 71.6 °F 100% 29.90 in 10.0 mi SW 6.9 mph - N/A Rain Light Rain
12:45 AM 71.6 °F - 71.6 °F 100% 29.90 in 10.0 mi SW 9.2 mph - N/A   Partly Cloudy
12:58 AM 72.3 °F - 72.3 °F 100% 29.85 in 10.0 mi SW 9.2 mph - 0.04 in   Clear
1:58 AM 72.9 °F - 72.7 °F 99% 29.86 in 10.0 mi South 21.9 mph - N/A   Clear
2:58 AM 73.0 °F - 70.7 °F 92% 29.81 in 10.0 mi SE 9.2 mph - N/A   Partly Cloudy
3:58 AM 74.5 °F - 69.8 °F 85% 29.79 in 10.0 mi South 4.6 mph - N/A   Partly Cloudy
4:58 AM 75.6 °F - 70.0 °F 83% 29.79 in 10.0 mi SE 4.6 mph - N/A   Mostly Cloudy
5:58 AM 75.2 °F - 70.9 °F 86% 29.79 in 10.0 mi East 2.3 mph - N/A   Clear
6:58 AM 72.1 °F - 71.8 °F 99% 29.81 in 10.0 mi NE 8.1 mph - N/A   Clear
7:58 AM 73.4 °F - 73.2 °F 99% 29.83 in 10.0 mi NNE 2.3 mph - N/A   Clear
8:58 AM 76.5 °F - 73.6 °F 91% 29.83 in 10.0 mi NNE 1.2 mph - N/A   Clear
9:58 AM 77.9 °F - 73.9 °F 88% 29.85 in 10.0 mi East 5.8 mph - N/A   Partly Cloudy
10:58 AM 81.0 °F 86.7 °F 75.0 °F 82% 29.85 in 10.0 mi East 5.8 mph - N/A   Clear
11:58 AM 82.4 °F 89.5 °F 75.4 °F 79% 29.84 in 10.0 mi Variable 6.9 mph - N/A   Partly Cloudy
12:58 PM 84.7 °F 93.6 °F 75.6 °F 74% 29.84 in 10.0 mi East 5.8 mph - N/A   Scattered Clouds
1:58 PM 86.9 °F 99.3 °F 77.5 °F 74% 29.83 in 10.0 mi ENE 4.6 mph - N/A   Mostly Cloudy
2:58 PM 88.2 °F 100.7 °F 77.4 °F 70% 29.82 in 10.0 mi ESE 10.4 mph - N/A   Partly Cloudy
3:58 PM 88.5 °F 98.3 °F 74.8 °F 64% 29.79 in 10.0 mi SE 12.7 mph - N/A   Clear
4:58 PM 90.9 °F 101.8 °F 75.2 °F 60% 29.77 in 10.0 mi SE 10.4 mph - N/A   Clear
5:58 PM 91.2 °F 102.0 °F 74.8 °F 59% 29.76 in 10.0 mi ESE 10.4 mph - N/A   Clear
6:58 PM 90.3 °F 101.6 °F 75.9 °F 62% 29.77 in 10.0 mi SE 9.2 mph - N/A   Clear
7:58 PM 88.2 °F 100.7 °F 77.2 °F 70% 29.75 in 10.0 mi East 5.8 mph - N/A   Clear
8:58 PM 86.2 °F 102.0 °F 80.4 °F 83% 29.75 in 10.0 mi East 6.9 mph - N/A   Clear
9:55 PM 84.7 °F 100.2 °F 81.1 °F 89% 29.78 in 10.0 mi NE 8.1 mph - N/A   Clear
10:58 PM 83.8 °F 97.1 °F 80.4 °F 89% 29.79 in 10.0 mi ENE 8.1 mph - N/A   Clear
11:58 PM 82.8 °F 94.9 °F 80.6 °F 93% 29.83 in 10.0 mi South 6.9 mph - N/A Thunderstorm Overcast
11:59 PM 82.4 °F 94.0 °F 80.6 °F 94% 29.87 in 10.0 mi South 8.1 mph - N/A Thunderstorm Light Drizzle